This is the latest recevied weather packets stored in our database for station/object W1SCW. If no packets are shown the sender has not sent any weather packets the latest 10 day(s).
| Time | Temp. | Humidity | Pressure | Rain* | Wind** | Luminosity | Snow |
|---|---|---|---|---|---|---|---|
| 1777415028 | 31.67° C | 64% | 1008.8 hPa | 0 mm | - | 339 W/m² | - |
| 1777414727 | 31.67° C | 64% | 1009 hPa | 0 mm | - | 305 W/m² | - |
| 1777414424 | 31.67° C | 64% | 1008.9 hPa | 0 mm | - | 154 W/m² | - |
| 1777414122 | 32.22° C | 63% | 1008.8 hPa | 0 mm | - | 393 W/m² | - |
| 1777413817 | 32.22° C | 64% | 1008.9 hPa | 0 mm | - | 441 W/m² | - |
| 1777413513 | 31.67° C | 65% | 1009.3 hPa | 0 mm | - | 148 W/m² | - |
| 1777413210 | 32.22° C | 62% | 1009.4 hPa | 0 mm | - | 250 W/m² | - |
| 1777412905 | 32.22° C | 64% | 1009.7 hPa | 0 mm | - | 491 W/m² | - |
| 1777412604 | 32.22° C | 62% | 1009.5 hPa | 0 mm | - | 343 W/m² | - |
| 1777412301 | 32.22° C | 62% | 1009.6 hPa | 0 mm | - | 310 W/m² | - |
| 1777411997 | 31.67° C | 65% | 1009.9 hPa | 0 mm | - | 435 W/m² | - |
| 1777411696 | 31.67° C | 63% | 1009.9 hPa | 0 mm | - | 592 W/m² | - |
| 1777411391 | 31.67° C | 65% | 1009.9 hPa | 0 mm | - | 532 W/m² | - |
| 1777411086 | 32.22° C | 64% | 1010.1 hPa | 0 mm | - | 586 W/m² | - |
| 1777410781 | 31.67° C | 65% | 1010.1 hPa | 0 mm | - | 571 W/m² | - |
| 1777410479 | 32.22° C | 63% | 1010.3 hPa | 0 mm | - | 474 W/m² | - |
| 1777410179 | 32.22° C | 63% | 1010 hPa | 0 mm | - | 550 W/m² | - |
| 1777409874 | 32.78° C | 61% | 1010.2 hPa | 0 mm | - | 582 W/m² | - |
| 1777409570 | 32.22° C | 63% | 1010 hPa | 0 mm | - | 639 W/m² | - |
| 1777409265 | 32.22° C | 64% | 1010.2 hPa | 0 mm | - | 659 W/m² | - |
| 1777408962 | 32.22° C | 63% | 1010.2 hPa | 0 mm | - | 720 W/m² | - |
| 1777408659 | 32.22° C | 65% | 1010.6 hPa | 0 mm | - | 249 W/m² | - |
| 1777408355 | 32.22° C | 65% | 1010.6 hPa | 0 mm | - | 713 W/m² | - |
| 1777408054 | 32.78° C | 60% | 1010.7 hPa | 0 mm | - | 383 W/m² | - |
| 1777407750 | 33.33° C | 60% | 1010.7 hPa | 0 mm | - | 720 W/m² | - |
* Rain latest hour (hover to see other rain measurements)
** Current wind speed in m/s (hover to see current wind gust speed)